Time,TemperatureF,DewpointF,PressureIn,WindDirection,WindDirectionDegrees,WindSpeedMPH,WindSpeedGustMPH,Humidity,HourlyPrecipIn,Conditions,Clouds,dailyrainin,SoftwareType,DateUTC
2013-12-14 00:12:00,1.0,-4.0,30.29,WNW,289,0.0,1.0,80,0.00,,,0.00,,2013-12-14 05:12:00,
2013-12-14 00:22:00,0.0,-4.0,30.30,WNW,290,0.0,0.0,81,0.00,,,0.00,,2013-12-14 05:22:00,
2013-12-14 00:42:00,0.0,-4.0,30.44,West,271,0.0,1.0,83,0.00,,,0.00,,2013-12-14 05:42:00,
2013-12-14 00:53:00,-1.0,-5.0,30.31,West,272,0.0,1.0,83,0.00,,,0.00,,2013-12-14 05:53:00,
2013-12-14 01:12:00,0.0,-4.0,30.31,WSW,254,0.0,2.0,83,0.00,,,0.00,,2013-12-14 06:12:00,
2013-12-14 01:22:00,-1.0,-5.0,30.32,West,268,0.0,2.0,82,0.00,,,0.00,,2013-12-14 06:22:00,
2013-12-14 01:42:00,0.0,-5.0,30.32,WSW,250,1.0,3.0,80,0.00,,,0.00,,2013-12-14 06:42:00,
2013-12-14 01:52:00,-1.0,-6.0,30.32,WNW,282,2.0,4.0,80,0.00,,,0.00,,2013-12-14 06:52:00,
2013-12-14 02:23:00,-1.0,-5.0,30.34,NNW,339,1.0,2.0,81,0.00,,,0.00,,2013-12-14 07:23:00,
2013-12-14 02:42:00,-1.0,-5.0,30.34,WNW,301,1.0,3.0,81,0.00,,,0.00,,2013-12-14 07:42:00,
2013-12-14 02:52:00,-1.0,-5.0,30.35,WNW,294,1.0,4.0,81,0.00,,,0.00,,2013-12-14 07:52:00,
2013-12-14 03:11:00,-1.0,-5.0,30.35,West,263,2.0,4.0,82,0.00,,,0.00,,2013-12-14 08:11:00,
2013-12-14 03:22:00,-1.0,-5.0,30.50,WNW,295,1.0,3.0,81,0.00,,,0.00,,2013-12-14 08:22:00,
2013-12-14 03:42:00,-1.0,-5.0,30.50,West,259,0.0,5.0,81,0.00,,,0.00,,2013-12-14 08:42:00,
2013-12-14 03:52:00,-1.0,-6.0,30.35,WSW,252,2.0,4.0,80,0.00,,,0.00,,2013-12-14 08:52:00,
2013-12-14 04:12:00,-1.0,-6.0,30.36,West,267,1.0,3.0,79,0.00,,,0.00,,2013-12-14 09:12:00,
2013-12-14 04:22:00,-1.0,-6.0,30.36,WNW,301,0.0,1.0,79,0.00,,,0.00,,2013-12-14 09:22:00,
2013-12-14 04:43:00,-1.0,-6.0,30.37,NNW,344,1.0,4.0,79,0.00,,,0.00,,2013-12-14 09:43:00,
2013-12-14 04:54:00,-1.0,-6.0,30.37,NW,323,2.0,4.0,78,0.00,,,0.00,,2013-12-14 09:54:00,
2013-12-14 05:12:00,-1.0,-6.0,30.38,WNW,283,1.0,5.0,77,0.00,,,0.00,,2013-12-14 10:12:00,
2013-12-14 05:23:00,-1.0,-6.0,30.38,North,355,2.0,5.0,77,0.00,,,0.00,,2013-12-14 10:23:00,
2013-12-14 05:43:00,-1.0,-7.0,30.40,NNW,328,1.0,3.0,76,0.00,,,0.00,,2013-12-14 10:43:00,
2013-12-14 05:53:00,-1.0,-7.0,30.41,West,272,1.0,4.0,76,0.00,,,0.00,,2013-12-14 10:53:00,
2013-12-14 06:11:00,-1.0,-7.0,30.41,West,277,1.0,2.0,76,0.00,,,0.00,,2013-12-14 11:11:00,
2013-12-14 06:23:00,-1.0,-7.0,30.41,NW,314,1.0,5.0,76,0.00,,,0.00,,2013-12-14 11:23:00,
2013-12-14 06:42:00,-1.0,-7.0,30.56,NNW,330,0.0,4.0,76,0.00,,,0.00,,2013-12-14 11:42:00,
2013-12-14 06:53:00,-2.0,-8.0,30.41,NW,320,2.0,6.0,76,0.00,,,0.00,,2013-12-14 11:53:00,
2013-12-14 07:12:00,-2.0,-8.0,30.42,WNW,285,1.0,4.0,75,0.00,,,0.00,,2013-12-14 12:12:00,
2013-12-14 07:22:00,-2.0,-8.0,30.42,NW,310,1.0,2.0,75,0.00,,,0.00,,2013-12-14 12:22:00,
2013-12-14 07:42:00,-2.0,-8.0,30.42,WSW,242,1.0,4.0,75,0.00,,,0.00,,2013-12-14 12:42:00,
2013-12-14 07:53:00,-2.0,-8.0,30.43,NNW,334,0.0,2.0,75,0.00,,,0.00,,2013-12-14 12:53:00,
2013-12-14 08:11:00,-2.0,-8.0,30.43,West,266,0.0,2.0,76,0.00,,,0.00,,2013-12-14 13:11:00,
2013-12-14 08:22:00,-2.0,-8.0,30.44,WSW,248,0.0,3.0,75,0.00,,,0.00,,2013-12-14 13:22:00,
2013-12-14 08:42:00,-2.0,-8.0,30.44,WNW,294,0.0,3.0,74,0.00,,,0.00,,2013-12-14 13:42:00,
2013-12-14 08:52:00,-2.0,-9.0,30.45,West,270,0.0,4.0,73,0.00,,,0.00,,2013-12-14 13:52:00,
2013-12-14 09:11:00,-1.0,-8.0,30.46,WNW,287,0.0,5.0,71,0.00,,,0.00,,2013-12-14 14:11:00,
2013-12-14 09:22:00,0.0,-7.0,30.46,WNW,286,0.0,3.0,71,0.00,,,0.00,,2013-12-14 14:22:00,
2013-12-14 09:42:00,0.0,-8.0,30.63,West,275,1.0,6.0,69,0.00,,,0.00,,2013-12-14 14:42:00,
2013-12-14 09:52:00,0.0,-8.0,30.47,WNW,303,1.0,2.0,69,0.00,,,0.00,,2013-12-14 14:52:00,
2013-12-14 10:11:00,1.0,-7.0,30.47,NW,323,0.0,3.0,68,0.00,,,0.00,,2013-12-14 15:11:00,
2013-12-14 10:22:00,2.0,-6.0,30.47,West,279,1.0,3.0,68,0.00,,,0.00,,2013-12-14 15:22:00,
2013-12-14 10:44:00,2.0,-7.0,30.47,North,359,1.0,5.0,66,0.00,,,0.00,,2013-12-14 15:44:00,
2013-12-14 10:54:00,2.0,-7.0,30.47,NW,308,0.0,3.0,65,0.00,,,0.00,,2013-12-14 15:54:00,
2013-12-14 11:13:00,3.0,-6.0,30.47,West,273,1.0,3.0,65,0.00,,,0.00,,2013-12-14 16:13:00,
2013-12-14 11:23:00,3.0,-6.0,30.46,North,357,0.0,2.0,65,0.00,,,0.00,,2013-12-14 16:23:00,
2013-12-14 11:43:00,4.0,-6.0,30.46,NW,310,0.0,2.0,63,0.00,,,0.00,,2013-12-14 16:43:00,
2013-12-14 11:53:00,5.0,-4.0,30.46,North,1,0.0,2.0,64,0.00,,,0.00,,2013-12-14 16:53:00,
2013-12-14 12:12:00,5.0,-4.0,30.45,North,357,1.0,1.0,64,0.00,,,0.00,,2013-12-14 17:12:00,
2013-12-14 12:23:00,6.0,-4.0,30.45,NNW,336,0.0,4.0,64,0.00,,,0.00,,2013-12-14 17:23:00,
2013-12-14 12:42:00,6.0,-4.0,30.45,NNW,348,1.0,2.0,62,0.00,,,0.00,,2013-12-14 17:42:00,
2013-12-14 12:53:00,6.0,-4.0,30.60,North,350,0.0,2.0,63,0.00,,,0.00,,2013-12-14 17:53:00,
2013-12-14 13:12:00,7.0,-3.0,30.42,North,350,1.0,3.0,64,0.00,,,0.00,,2013-12-14 18:12:00,
2013-12-14 13:22:00,7.0,-3.0,30.43,North,11,1.0,3.0,64,0.00,,,0.00,,2013-12-14 18:22:00,
2013-12-14 13:42:00,9.0,-2.0,30.42,NNW,327,0.0,2.0,61,0.00,,,0.00,,2013-12-14 18:42:00,
2013-12-14 13:52:00,10.0,-3.0,30.42,West,264,0.0,2.0,55,0.00,,,0.00,,2013-12-14 18:52:00,
2013-12-14 14:12:00,10.0,-4.0,30.42,NW,320,0.0,1.0,53,0.00,,,0.00,,2013-12-14 19:12:00,
2013-12-14 14:22:00,10.0,-3.0,30.41,West,259,0.0,2.0,54,0.00,,,0.00,,2013-12-14 19:22:00,
2013-12-14 14:42:00,10.0,-3.0,30.40,West,280,0.0,5.0,54,0.00,,,0.00,,2013-12-14 19:42:00,
2013-12-14 14:52:00,9.0,-5.0,30.41,ESE,105,1.0,4.0,53,0.00,,,0.00,,2013-12-14 19:52:00,
2013-12-14 15:11:00,9.0,-4.0,30.40,WNW,300,0.0,2.0,54,0.00,,,0.00,,2013-12-14 20:11:00,
2013-12-14 15:22:00,9.0,-4.0,30.41,NW,304,0.0,4.0,54,0.00,,,0.00,,2013-12-14 20:22:00,
2013-12-14 15:42:00,9.0,-4.0,30.41,WNW,283,1.0,2.0,55,0.00,,,0.00,,2013-12-14 20:42:00,
2013-12-14 15:54:00,8.0,-4.0,30.40,SE,133,0.0,2.0,56,0.00,,,0.00,,2013-12-14 20:54:00,
2013-12-14 16:11:00,8.0,-4.0,30.58,WNW,288,0.0,3.0,58,0.00,,,0.00,,2013-12-14 21:11:00,
2013-12-14 16:22:00,8.0,-3.0,30.40,WSW,258,0.0,3.0,60,0.00,,,0.00,,2013-12-14 21:22:00,
2013-12-14 16:44:00,8.0,-2.0,30.40,NW,312,1.0,4.0,64,0.00,,,0.00,,2013-12-14 21:44:00,
2013-12-14 16:54:00,7.0,-1.0,30.39,West,272,1.0,9.0,70,0.00,,,0.00,,2013-12-14 21:54:00,
2013-12-14 17:13:00,7.0,0.0,30.37,NNW,328,2.0,6.0,73,0.00,,,0.00,,2013-12-14 22:13:00,
2013-12-14 17:23:00,7.0,1.0,30.35,NNE,25,2.0,9.0,76,0.00,,,0.00,,2013-12-14 22:23:00,
2013-12-14 17:43:00,6.0,1.0,30.35,West,261,2.0,5.0,80,0.00,,,0.00,,2013-12-14 22:43:00,
2013-12-14 17:52:00,6.0,1.0,30.35,NNW,331,2.0,8.0,81,0.00,,,0.00,,2013-12-14 22:52:00,
2013-12-14 18:12:00,6.0,2.0,30.34,NNW,339,1.0,10.0,82,0.00,,,0.00,,2013-12-14 23:12:00,
2013-12-14 18:22:00,6.0,2.0,30.32,NNE,17,2.0,7.0,84,0.00,,,0.00,,2013-12-14 23:22:00,
2013-12-14 18:43:00,6.0,3.0,30.32,West,277,1.0,8.0,86,0.00,,,0.00,,2013-12-14 23:43:00,
2013-12-14 18:53:00,6.0,3.0,30.31,NNE,12,2.0,5.0,86,0.00,,,0.00,,2013-12-14 23:53:00,
2013-12-14 19:11:00,6.0,3.0,30.49,West,265,2.0,6.0,87,0.00,,,0.00,,2013-12-15 00:11:00,
2013-12-14 19:23:00,6.0,3.0,30.32,WSW,249,1.0,6.0,87,0.00,,,0.00,,2013-12-15 00:23:00,
2013-12-14 19:42:00,6.0,3.0,30.31,WSW,241,2.0,8.0,87,0.00,,,0.00,,2013-12-15 00:42:00,
2013-12-14 19:52:00,7.0,4.0,30.31,WNW,296,2.0,11.0,87,0.00,,,0.00,,2013-12-15 00:52:00,
2013-12-14 20:12:00,7.0,4.0,30.30,West,268,2.0,8.0,88,0.00,,,0.00,,2013-12-15 01:12:00,
2013-12-14 20:21:00,7.0,4.0,30.28,NNW,327,1.0,7.0,88,0.00,,,0.00,,2013-12-15 01:21:00,
2013-12-14 20:42:00,7.0,4.0,30.27,WNW,282,2.0,6.0,88,0.00,,,0.00,,2013-12-15 01:42:00,
2013-12-14 20:52:00,7.0,4.0,30.27,West,273,2.0,7.0,89,0.00,,,0.00,,2013-12-15 01:52:00,
2013-12-14 21:11:00,7.0,4.0,30.24,SSW,211,2.0,16.0,89,0.00,,,0.00,,2013-12-15 02:11:00,
2013-12-14 21:22:00,7.0,4.0,30.23,SW,232,3.0,9.0,89,0.00,,,0.00,,2013-12-15 02:22:00,
2013-12-14 21:42:00,8.0,6.0,30.22,ESE,114,3.0,9.0,90,0.00,,,0.00,,2013-12-15 02:42:00,
2013-12-14 21:52:00,8.0,6.0,30.21,West,281,3.0,8.0,90,0.00,,,0.00,,2013-12-15 02:52:00,
2013-12-14 22:12:00,8.0,6.0,30.39,WSW,239,4.0,9.0,90,0.00,,,0.00,,2013-12-15 03:12:00,
2013-12-14 22:22:00,8.0,6.0,30.38,WSW,243,3.0,7.0,90,0.00,,,0.00,,2013-12-15 03:22:00,
2013-12-14 22:43:00,9.0,7.0,30.20,NW,317,3.0,7.0,90,0.00,,,0.00,,2013-12-15 03:43:00,
2013-12-14 22:54:00,9.0,7.0,30.19,West,277,2.0,6.0,90,0.00,,,0.00,,2013-12-15 03:54:00,
2013-12-14 23:03:00,-999.0,-99.9,30.18,NNE,26,3.0,9.0,-999,0.00,,,0.00,,2013-12-15 04:03:00,
2013-12-14 23:13:00,9.0,7.0,30.18,NNE,26,3.0,9.0,90,0.00,,,0.00,,2013-12-15 04:13:00,
2013-12-14 23:23:00,9.0,7.0,30.16,WNW,298,3.0,7.0,91,0.00,,,0.00,,2013-12-15 04:23:00,
2013-12-14 23:43:00,9.0,7.0,30.13,SW,214,3.0,9.0,91,0.00,,,0.00,,2013-12-15 04:43:00,
2013-12-14 23:53:00,9.0,7.0,30.11,SSW,193,3.0,9.0,91,0.00,,,0.00,,2013-12-15 04:53:00,